Location: ActonStarParty
(42.4766°N, 71.4538°W)
Time: 19:03:23
(UTC-04:00)

Amateur Radio Satellites - All Passes

Search period start: 30 March 2015 18:33
Search period end: 31 March 2015 18:33
Location: ActonStarParty, 42.4766°N, 71.4538°W

Satellite Date Start Highest point End Downlink Frequencies (MHz)
Time Altitude Azimuth
STRAND 1 30 Mar 18:40:40 18:43:54 17° 90° (E) 18:47:20 437.568
GONETS M04 30 Mar 18:41:11 18:48:50 38° 86° (E) 18:56:42
BEESAT 2 30 Mar 18:42:08 18:46:12 52° 52° (NE) 18:50:12 435.950
MOZHAYETS 4 30 Mar 18:47:19 18:50:47 20° 294° (WNW) 18:54:07
CUBESAT XI-V 30 Mar 18:59:56 19:04:26 49° 99° (E) 19:08:54 437.345
AUBIESAT-1 30 Mar 19:06:05 19:10:43 46° 294° (WNW) 19:15:13 437.475
RS-15 30 Mar 19:07:39 19:18:24 71° 118° (ESE) 19:29:25 29.354- 29.394
HO-68 30 Mar 19:08:26 19:13:47 24° 58° (ENE) 19:19:21 435.675
BRITE-PL 30 Mar 19:09:05 19:11:49 16° 67° (ENE) 19:14:37 437.365/2234.400
PRISM 30 Mar 19:16:28 19:20:36 56° 100° (E) 19:24:40 437.425
BEESAT 3 30 Mar 19:17:45 19:21:49 57° 240° (WSW) 19:25:46 437.485
CUTE 1.7 + AOD 2 30 Mar 19:19:49 19:20:24 10° 62° (ENE) 19:21:14 437.475
M-CUBED/EXP-1 PRIME 30 Mar 19:32:10 19:36:10 25° 299° (WNW) 19:40:00 437.505
DOVE 4 30 Mar 19:33:03 19:34:25 12° 64° (ENE) 19:35:59 437.250
SO-50 30 Mar 19:43:59 19:48:24 41° 312° (NW) 19:52:58 436.795
SEEDS 30 Mar 19:44:57 19:47:31 16° 66° (ENE) 19:50:15 437.485
GOMX 1 30 Mar 19:48:11 19:51:47 25° 69° (ENE) 19:55:19 467.674
AIST 2 30 Mar 20:01:39 20:05:54 69° 240° (WSW) 20:10:03 435.215
COMPASS 1 30 Mar 20:04:42 20:07:51 22° 68° (ENE) 20:11:07 437.405
Oscar 11 30 Mar 20:13:31 20:15:07 12° 63° (ENE) 20:16:56 145.826/435.025
STRAND 1 30 Mar 20:18:33 20:23:34 57° 288° (WNW) 20:28:33 437.568
BEESAT 2 30 Mar 20:21:27 20:23:59 15° 249° (WSW) 20:26:21 435.950
UWE-3 30 Mar 20:34:37 20:36:12 12° 63° (ENE) 20:37:58 435.000/436.395/437.385
GONETS M04 30 Mar 20:37:08 20:45:31 49° 287° (WNW) 20:53:55
CINEMA 3 30 Mar 20:37:32 20:41:05 28° 70° (ENE) 20:44:41 145.822/145.860
CANX-2 30 Mar 20:37:48 20:42:01 79° 76° (ENE) 20:46:19 2200.000
CUBESAT XI-V 30 Mar 20:38:19 20:41:33 18° 295° (WNW) 20:44:36 437.345
ZACube-1 30 Mar 20:40:30 20:41:45 11° 63° (ENE) 20:43:13 437.345
CUBEBUG 2 30 Mar 20:41:19 20:43:59 17° 66° (ENE) 20:46:49 437.445
DELFI C3 30 Mar 20:43:28 20:46:11 18° 67° (ENE) 20:49:02 145.870
CUSAT 1 30 Mar 20:45:30 20:48:09 41° 98° (E) 20:50:39 437.405
BRITE-PL 30 Mar 20:45:32 20:50:07 51° 260° (W) 20:54:23 437.365/2234.400
CUTE 1.7 + AOD 2 30 Mar 20:51:31 20:55:45 80° 257° (WSW) 21:00:03 437.475
PRISM 30 Mar 20:53:26 20:55:40 14° 296° (WNW) 20:57:44 437.425
HO-68 30 Mar 20:53:45 21:00:55 74° 256° (WSW) 21:08:08 435.675
DOVE 4 30 Mar 21:07:29 21:11:47 67° 259° (W) 21:15:57 437.250
AAUSAT CUBESAT 2 30 Mar 21:10:46 21:14:56 82° 256° (WSW) 21:19:10 437.432
UKube-1 30 Mar 21:18:28 21:21:54 24° 67° (ENE) 21:25:24 .
SEEDS 30 Mar 21:18:57 21:23:00 46° 262° (W) 21:27:07 437.485
HUMSAT D 30 Mar 21:19:18 21:21:37 15° 65° (ENE) 21:24:06 437.325/437.525
RS-15 30 Mar 21:21:35 21:31:44 40° 324° (NW) 21:42:03 29.354- 29.394
GOMX 1 30 Mar 21:25:59 21:29:53 29° 264° (W) 21:33:36 467.674
DX 1 30 Mar 21:30:03 21:33:55 32° 69° (ENE) 21:37:50 434.975-435.025
PCSat 30 Mar 21:34:04 21:35:25 11° 31° (NNE) 21:37:00 145.827
COMPASS 1 30 Mar 21:39:33 21:43:23 33° 264° (W) 21:47:13 437.405
DANDE 30 Mar 21:43:42 21:46:19 28° 283° (WNW) 21:48:42 436.750
Oscar 11 30 Mar 21:46:29 21:50:47 70° 258° (WSW) 21:55:08 145.826/435.025
50 SAT 30 Mar 21:48:44 21:51:35 20° 67° (ENE) 21:54:32 437.505
FUNcube-1 30 Mar 22:00:02 22:04:10 83° 76° (ENE) 22:08:21 145.935
UWE-3 30 Mar 22:08:11 22:12:17 63° 259° (W) 22:16:26 435.000/436.395/437.385
CUBEBUG 1 30 Mar 22:12:34 22:15:36 19° 66° (ENE) 22:18:44 437.445
ZACube-1 30 Mar 22:13:31 22:17:38 68° 259° (W) 22:21:48 437.345
ISS 30 Mar 22:13:57 22:17:01 39° 140° (SE) 22:20:05 145.825
CINEMA 3 30 Mar 22:14:55 22:18:21 24° 266° (W) 22:21:41 145.822/145.860
VELOX 1 30 Mar 22:15:27 22:19:38 42° 71° (ENE) 22:23:51 145.980
CUBEBUG 2 30 Mar 22:16:31 22:20:27 41° 262° (W) 22:24:24 437.445
DELFI C3 30 Mar 22:17:17 22:21:06 39° 262° (W) 22:24:58 145.870
AISAT 30 Mar 22:20:40 22:24:56 49° 73° (ENE) 22:29:15 437.250
UNISAT 6 30 Mar 22:25:24 22:28:30 18° 91° (E) 22:31:47 437.425
TIGRISAT 30 Mar 22:34:40 22:38:10 22° 93° (E) 22:41:49 435.000
YUBILEINY 30 Mar 22:38:36 22:41:13 12° 51° (NE) 22:44:30 435.215
QB50P1 30 Mar 22:46:59 22:49:09 14° 90° (E) 22:51:30 145.935-145.965
HO-68 30 Mar 22:47:15 22:50:04 12° 276° (W) 22:52:18 435.675
DUCHIFAT 1 30 Mar 22:48:00 22:50:08 14° 90° (E) 22:52:29 145.980
HUMSAT D 30 Mar 22:53:05 22:57:03 47° 261° (W) 23:01:03 437.325/437.525
UKube-1 30 Mar 22:53:59 22:57:55 33° 263° (W) 23:01:50 .
ESTCUBE 1 30 Mar 22:54:53 22:59:20 57° 73° (ENE) 23:03:50 437.505/2401.250
QB50P2 30 Mar 23:01:32 23:04:43 21° 93° (E) 23:08:00 145.880/145.840
ANTELSAT 30 Mar 23:05:06 23:09:31 46° 99° (E) 23:14:02 437.575/2403.000
DX 1 30 Mar 23:06:41 23:10:14 23° 266° (W) 23:13:43 434.975-435.025
PCSat 30 Mar 23:15:02 23:20:18 49° 54° (NE) 23:25:33 145.827
BUGSAT 1 30 Mar 23:21:15 23:24:26 23° 94° (E) 23:27:40 437.445
50 SAT 30 Mar 23:22:48 23:26:20 31° 264° (W) 23:29:52 437.505
POPSAT HIP 1 30 Mar 23:29:23 23:33:23 41° 98° (E) 23:37:24 437.405
TISAT 1 30 Mar 23:35:12 23:38:52 30° 70° (ENE) 23:42:35 437.305
NANOSAT C BR1 30 Mar 23:39:16 23:43:25 53° 100° (E) 23:47:33 145.865
RS-15 30 Mar 23:39:59 23:48:19 23° 357° (N) 23:56:50 29.354- 29.394
POLYITAN 1 30 Mar 23:44:50 23:49:03 63° 101° (E) 23:53:16 437.675
CUBEBUG 1 30 Mar 23:47:29 23:51:42 43° 262° (W) 23:55:54 437.445
ISS 30 Mar 23:50:30 23:53:28 32° 337° (NNW) 23:56:26 145.825
SPROUT 30 Mar 23:50:35 23:54:44 52° 73° (ENE) 23:58:56 437.525
VELOX 1 30 Mar 23:53:15 23:56:26 19° 268° (W) 23:59:30 145.980
AISAT 30 Mar 23:59:05 00:01:54 16° 270° (W) 00:04:31 437.250
UNISAT 6 31 Mar 00:01:09 00:05:34 47° 288° (WNW) 00:10:02 437.425
TIGRISAT 31 Mar 00:10:48 00:15:04 39° 289° (WNW) 00:19:22 435.000
ITUPSAT 1 31 Mar 00:17:39 00:20:34 17° 63° (ENE) 00:23:41 437.325
QB50P1 31 Mar 00:21:17 00:25:24 51° 287° (WNW) 00:29:30 145.935-145.965
DUCHIFAT 1 31 Mar 00:22:15 00:26:20 51° 287° (WNW) 00:30:26 145.980
YUBILEINY 31 Mar 00:31:54 00:40:35 59° 76° (ENE) 00:49:13 435.215
ESTCUBE 1 31 Mar 00:34:04 00:36:39 14° 271° (W) 00:39:03 437.505/2401.250
QB50P2 31 Mar 00:36:53 00:40:45 34° 290° (WNW) 00:44:35 145.880/145.840
ANTELSAT 31 Mar 00:42:42 00:46:03 20° 294° (WNW) 00:49:18 437.575/2403.000
BUGSAT 1 31 Mar 00:56:27 00:59:57 28° 291° (WNW) 01:03:24 437.445
PCSat 31 Mar 00:59:03 01:03:28 25° 251° (WSW) 01:07:44 145.827
SWISSCUBE 31 Mar 01:02:50 01:07:26 48° 71° (ENE) 01:12:05 437.505
BEESAT 31 Mar 01:05:33 01:10:07 47° 71° (ENE) 01:14:45 436.000
POPSAT HIP 1 31 Mar 01:06:02 01:09:01 18° 294° (WNW) 01:11:54 437.405
TISAT 1 31 Mar 01:11:16 01:14:43 23° 266° (W) 01:18:06 437.305
NANOSAT C BR1 31 Mar 01:16:27 01:18:53 15° 295° (WNW) 01:21:12 145.865
Oscar 19 31 Mar 01:16:43 01:20:21 20° 91° (E) 01:24:10 437.125/150
POLYITAN 1 31 Mar 01:22:31 01:24:32 13° 296° (WNW) 01:26:22 437.675
ISS 31 Mar 01:28:26 01:30:35 16° 357° (N) 01:32:44 145.825
SPROUT 31 Mar 01:28:49 01:31:13 14° 271° (W) 01:33:25 437.525
ITUPSAT 1 31 Mar 01:53:17 01:58:02 61° 259° (WSW) 02:02:51 437.325
RS-15 31 Mar 01:55:22 02:05:20 34° 31° (NNE) 02:15:51 29.354- 29.394
KKS-1 31 Mar 02:24:49 02:29:09 57° 73° (ENE) 02:33:32 437.445
ITAMSAT 1 31 Mar 02:25:19 02:29:39 27° 94° (E) 02:34:04 435.822/435.867
YUBILEINY 31 Mar 02:29:29 02:36:59 31° 276° (W) 02:44:12 435.215
SO-50 31 Mar 02:34:21 02:38:48 33° 46° (NE) 02:43:16 436.795
SWISSCUBE 31 Mar 02:42:08 02:45:37 19° 269° (W) 02:48:57 437.505
BEESAT 31 Mar 02:44:45 02:48:16 19° 269° (W) 02:51:38 436.000
STARS 31 Mar 02:52:53 02:57:15 74° 75° (ENE) 03:01:38 437.465
Oscar 19 31 Mar 02:55:02 03:00:05 52° 289° (WNW) 03:05:06 437.125/150
ISS 31 Mar 03:05:10 03:07:49 23° 17° (NNE) 03:10:28 145.825
JAS-2 31 Mar 03:12:48 03:14:56 12° 78° (ENE) 03:17:37 435.910
Gurwin Techsat 1B 31 Mar 03:23:20 03:28:41 78° 102° (ESE) 03:34:01 435.225
AIST 1 31 Mar 03:41:00 03:45:01 37° 92° (E) 03:49:06
O/OREOS (USA 219) 31 Mar 03:58:00 04:02:35 75° 111° (ESE) 04:07:12 437.305
KKS-1 31 Mar 04:03:53 04:06:15 14° 271° (W) 04:08:24 437.445
ITAMSAT 1 31 Mar 04:04:30 04:09:16 38° 292° (WNW) 04:13:59 435.822/435.867
RS-15 31 Mar 04:07:55 04:19:29 90° 59° (ENE) 04:31:33 29.354- 29.394
VERMONT LUNAR 31 Mar 04:09:34 04:11:20 14° 150° (SSE) 04:13:09 437.305
MOZHAYETS 4 31 Mar 04:11:51 04:16:14 44° 72° (ENE) 04:20:41
SO-50 31 Mar 04:14:51 04:19:26 37° 244° (WSW) 04:23:55 436.795
AUBIESAT-1 31 Mar 04:20:43 04:24:14 28° 62° (ENE) 04:28:04 437.475
HORYU 2 31 Mar 04:28:40 04:33:12 84° 103° (ESE) 04:37:43 437.375
STARS 31 Mar 04:33:35 04:34:20 10° 273° (W) 04:34:48 437.465
ISS 31 Mar 04:41:17 04:44:32 81° 215° (SW) 04:47:45 145.825
AO-7 31 Mar 04:41:26 04:49:33 56° 102° (ESE) 04:57:41 29.400- 29.500
M-CUBED/EXP-1 PRIME 31 Mar 04:46:05 04:50:05 56° 68° (ENE) 04:54:29 437.505
GONETS M04 31 Mar 04:50:38 04:56:25 19° 59° (ENE) 05:02:37
JAS-2 31 Mar 04:54:00 05:01:44 68° 100° (E) 05:08:48 435.910
PHONESAT 2.4 31 Mar 05:04:10 05:06:20 16° 151° (SSE) 05:08:33 2401.200-2431.200
Gurwin Techsat 1B 31 Mar 05:04:58 05:08:06 16° 299° (WNW) 05:11:01 435.225
AIST 1 31 Mar 05:19:35 05:22:52 20° 290° (WNW) 05:26:03
O/OREOS (USA 219) 31 Mar 05:40:05 05:42:39 14° 311° (NW) 05:45:02 437.305
VERMONT LUNAR 31 Mar 05:45:22 05:48:32 42° 166° (SSE) 05:51:44 437.305
MOZHAYETS 4 31 Mar 05:50:22 05:53:44 19° 269° (W) 05:56:58
AUBIESAT-1 31 Mar 05:55:24 05:59:01 29° 261° (W) 06:02:50 437.475
STRAND 1 31 Mar 05:56:51 06:01:09 28° 66° (ENE) 06:05:32 437.568
CUBESAT XI-V 31 Mar 06:03:45 06:08:18 52° 73° (ENE) 06:12:54 437.345
PRISM 31 Mar 06:07:14 06:11:15 45° 72° (ENE) 06:15:19 437.425
HORYU 2 31 Mar 06:07:52 06:09:16 11° 299° (WNW) 06:10:26 437.375
RS-15 31 Mar 06:21:53 06:30:46 25° 256° (WSW) 06:39:17 29.354- 29.394
M-CUBED/EXP-1 PRIME 31 Mar 06:23:18 06:25:31 14° 268° (W) 06:27:37 437.505
AO-7 31 Mar 06:34:43 06:42:05 36° 301° (WNW) 06:49:19 29.400- 29.500
CUTE-I 31 Mar 06:38:29 06:43:26 39° 97° (E) 06:48:24 437.470
DANDE 31 Mar 06:38:34 06:40:24 13° 71° (ENE) 06:42:41 436.750
Cubesat XI-IV 31 Mar 06:39:12 06:44:12 40° 97° (E) 06:49:12 437.490
JAS-2 31 Mar 06:39:48 06:46:09 28° 300° (WNW) 06:51:58 435.910
PHONESAT 2.4 31 Mar 06:40:50 06:44:12 45° 166° (SSE) 06:47:36 2401.200-2431.200
GONETS M04 31 Mar 06:45:56 06:54:50 87° 84° (E) 07:03:42
CUSAT 1 31 Mar 07:18:34 07:22:47 44° 78° (ENE) 07:28:22 437.405
VERMONT LUNAR 31 Mar 07:22:45 07:26:04 62° 182° (S) 07:29:23 437.305
STRAND 1 31 Mar 07:35:27 07:40:14 37° 263° (W) 07:44:59 437.568
CUBESAT XI-V 31 Mar 07:43:00 07:46:07 17° 270° (W) 07:49:03 437.345
PRISM 31 Mar 07:44:21 07:47:02 16° 269° (W) 07:49:34 437.425
CUTE-I 31 Mar 08:18:52 08:23:23 28° 294° (WNW) 08:27:48 437.470
PHONESAT 2.4 31 Mar 08:18:53 08:22:22 63° 183° (S) 08:25:53 2401.200-2431.200
DANDE 31 Mar 08:19:37 08:23:44 62° 261° (W) 08:29:17 436.750
Cubesat XI-IV 31 Mar 08:19:40 08:24:09 28° 294° (WNW) 08:28:33 437.490
HO-68 31 Mar 08:21:56 08:26:59 21° 90° (E) 08:32:18 435.675
CANX-2 31 Mar 08:24:14 08:26:17 13° 89° (E) 08:28:33 2200.000
CUTE 1.7 + AOD 2 31 Mar 08:37:18 08:40:04 17° 90° (E) 08:42:59 437.475
GONETS M04 31 Mar 08:44:41 08:50:39 20° 281° (W) 08:56:11
BRITE-PL 31 Mar 08:49:05 08:53:05 41° 98° (E) 08:57:18 437.365/2234.400
AAUSAT CUBESAT 2 31 Mar 08:54:38 08:57:05 15° 90° (E) 08:59:42 437.432
VERMONT LUNAR 31 Mar 09:00:27 09:03:31 33° 199° (SSW) 09:06:36 437.305
CUSAT 1 31 Mar 09:02:03 09:05:33 20° 265° (W) 09:09:37 437.405
SEEDS 31 Mar 09:03:01 09:06:38 27° 94° (E) 09:10:20 437.485
DOVE 4 31 Mar 09:05:33 09:09:20 28° 96° (E) 09:13:20 437.250
BEESAT 3 31 Mar 09:12:22 09:15:30 22° 113° (ESE) 09:18:44 437.485
COMPASS 1 31 Mar 09:22:16 09:26:11 35° 96° (E) 09:30:07 437.405
GOMX 1 31 Mar 09:25:44 09:30:01 69° 101° (E) 09:34:34 467.674
UNISAT 6 31 Mar 09:25:57 09:28:38 17° 65° (ENE) 09:31:30 437.425
Oscar 11 31 Mar 09:33:59 09:37:12 20° 92° (E) 09:40:30 145.826/435.025
TIGRISAT 31 Mar 09:34:50 09:37:54 20° 66° (ENE) 09:41:07 435.000
QB50P1 31 Mar 09:41:27 09:43:12 13° 64° (ENE) 09:45:09 145.935-145.965
DUCHIFAT 1 31 Mar 09:42:10 09:43:53 13° 64° (ENE) 09:45:48 145.980
FUNcube-1 31 Mar 09:48:49 09:51:25 16° 90° (E) 09:54:13 145.935
QB50P2 31 Mar 09:55:46 09:58:38 18° 66° (ENE) 10:01:36 145.880/145.840
DELFI C3 31 Mar 09:56:34 10:00:00 26° 94° (E) 10:03:30 145.870
PHONESAT 2.4 31 Mar 09:57:15 10:00:29 33° 200° (SSW) 10:03:42 2401.200-2431.200
UWE-3 31 Mar 09:57:33 10:01:10 24° 94° (E) 10:04:55 435.000/436.395/437.385
CANX-2 31 Mar 09:58:24 10:02:39 55° 286° (WNW) 10:06:51 2200.000
AIST 2 31 Mar 10:01:02 10:04:15 22° 113° (ESE) 10:07:35 435.215
ZACube-1 31 Mar 10:01:52 10:05:15 22° 93° (E) 10:08:48 437.345
ANTELSAT 31 Mar 10:05:05 10:09:06 42° 72° (ENE) 10:13:14 437.575/2403.000
CUBEBUG 2 31 Mar 10:06:24 10:10:32 36° 97° (E) 10:14:46 437.445
CINEMA 3 31 Mar 10:07:28 10:11:55 69° 102° (ESE) 10:16:32 145.822/145.860
HO-68 31 Mar 10:08:17 10:15:30 75° 289° (WNW) 10:22:39 435.675
CUTE 1.7 + AOD 2 31 Mar 10:12:09 10:16:15 43° 288° (WNW) 10:20:20 437.475
BUGSAT 1 31 Mar 10:12:32 10:15:26 19° 67° (ENE) 10:18:24 437.445
BEESAT 2 31 Mar 10:14:26 10:18:33 84° 123° (ESE) 10:22:44 435.950
POPSAT HIP 1 31 Mar 10:23:01 10:26:48 34° 70° (ENE) 10:30:38 437.405
BRITE-PL 31 Mar 10:28:32 10:31:26 18° 293° (WNW) 10:34:17 437.365/2234.400
AAUSAT CUBESAT 2 31 Mar 10:28:57 10:33:02 46° 287° (WNW) 10:37:04 437.432
NANOSAT C BR1 31 Mar 10:32:33 10:36:32 43° 72° (ENE) 10:40:32 145.865
HUMSAT D 31 Mar 10:36:49 10:40:22 25° 94° (E) 10:43:59 437.325/437.525
POLYITAN 1 31 Mar 10:38:32 10:42:37 51° 73° (ENE) 10:46:44 437.675
SEEDS 31 Mar 10:38:46 10:42:26 27° 291° (WNW) 10:46:01 437.485
UKube-1 31 Mar 10:40:38 10:44:39 37° 98° (E) 10:48:40 .
DOVE 4 31 Mar 10:43:23 10:47:06 27° 290° (WNW) 10:50:54 437.250
ESTCUBE 1 31 Mar 10:49:26 10:50:45 11° 87° (E) 10:52:20 437.505/2401.250
BEESAT 3 31 Mar 10:49:30 10:53:22 37° 310° (NW) 10:57:15 437.485
DX 1 31 Mar 10:53:23 10:57:39 55° 100° (E) 11:01:54 434.975-435.025
COMPASS 1 31 Mar 10:58:27 11:01:42 21° 293° (WNW) 11:04:51 437.405
50 SAT 31 Mar 10:59:46 11:03:17 28° 95° (E) 11:06:50 437.505
UNISAT 6 31 Mar 11:01:00 11:05:07 46° 261° (W) 11:09:19 437.425
GOMX 1 31 Mar 11:06:02 11:07:47 12° 296° (WNW) 11:09:21 467.674
Oscar 11 31 Mar 11:09:29 11:13:33 37° 289° (WNW) 11:17:33 145.826/435.025
TIGRISAT 31 Mar 11:10:28 11:14:27 37° 263° (W) 11:18:28 435.000
QB50P1 31 Mar 11:14:27 11:18:38 63° 259° (W) 11:22:49 145.935-145.965
DUCHIFAT 1 31 Mar 11:15:06 11:19:16 63° 259° (W) 11:23:27 145.980
FUNcube-1 31 Mar 11:23:49 11:28:06 50° 286° (WNW) 11:32:25 145.935
QB50P2 31 Mar 11:30:17 11:34:17 41° 262° (W) 11:38:17 145.880/145.840
DELFI C3 31 Mar 11:31:41 11:35:09 26° 291° (WNW) 11:38:31 145.870
UWE-3 31 Mar 11:33:47 11:37:45 33° 290° (WNW) 11:41:47 435.000/436.395/437.385
CUBEBUG 1 31 Mar 11:35:52 11:39:43 31° 96° (E) 11:43:36 437.445
ZACube-1 31 Mar 11:37:42 11:41:45 36° 289° (WNW) 11:45:49 437.345
AIST 2 31 Mar 11:38:34 11:42:37 41° 310° (NW) 11:46:43 435.215
VELOX 1 31 Mar 11:41:34 11:46:00 80° 102° (ESE) 11:50:24 145.980
ANTELSAT 31 Mar 11:43:15 11:46:11 17° 269° (W) 11:49:00 437.575/2403.000
CUBEBUG 2 31 Mar 11:43:33 11:47:04 23° 292° (WNW) 11:50:34 437.445
YUBILEINY 31 Mar 11:44:04 11:46:25 12° 74° (ENE) 11:49:30 435.215
CINEMA 3 31 Mar 11:46:34 11:48:42 13° 296° (WNW) 11:50:40 145.822/145.860
BUGSAT 1 31 Mar 11:46:49 11:50:42 37° 262° (W) 11:54:32 437.445
AISAT 31 Mar 11:47:10 11:51:37 87° 279° (W) 11:56:01 437.250
BEESAT 2 31 Mar 11:54:58 11:57:19 14° 322° (NW) 11:59:34 435.950
HO-68 31 Mar 11:58:00 12:02:11 16° 307° (NW) 12:06:02 435.675
POPSAT HIP 1 31 Mar 11:59:33 12:02:48 21° 267° (W) 12:05:58 437.405
NANOSAT C BR1 31 Mar 12:09:52 12:12:39 16° 269° (W) 12:15:16 145.865
HUMSAT D 31 Mar 12:12:25 12:16:07 29° 290° (WNW) 12:19:48 437.325/437.525
POLYITAN 1 31 Mar 12:16:37 12:18:55 14° 270° (W) 12:21:02 437.675
UKube-1 31 Mar 12:17:18 12:20:36 21° 294° (WNW) 12:23:47 .
ESTCUBE 1 31 Mar 12:23:43 12:28:14 70° 285° (WNW) 12:32:42 437.505/2401.250
O/OREOS (USA 219) 31 Mar 12:29:07 12:32:16 18° 53° (NE) 12:35:30 437.305
DX 1 31 Mar 12:30:57 12:33:31 15° 296° (WNW) 12:35:56 434.975-435.025
Oscar 19 31 Mar 12:34:03 12:38:27 31° 67° (ENE) 12:42:57 437.125/150
50 SAT 31 Mar 12:34:50 12:38:05 23° 291° (WNW) 12:41:17 437.505
TISAT 1 31 Mar 12:54:21 12:58:26 49° 99° (E) 13:02:31 437.305
SWISSCUBE 31 Mar 13:04:58 13:06:23 11° 87° (E) 13:08:05 437.505
Gurwin Techsat 1B 31 Mar 13:07:31 13:10:58 18° 62° (ENE) 13:14:34 435.225
BEESAT 31 Mar 13:07:41 13:08:56 11° 87° (E) 13:10:30 436.000
CUBEBUG 1 31 Mar 13:12:27 13:15:59 24° 292° (WNW) 13:19:26 437.445
SPROUT 31 Mar 13:12:28 13:16:47 85° 282° (WNW) 13:21:04 437.525
VELOX 1 31 Mar 13:20:35 13:22:00 11° 299° (WNW) 13:23:13 145.980
YUBILEINY 31 Mar 13:33:03 13:41:42 66° 93° (E) 13:50:27 435.215
ITAMSAT 1 31 Mar 13:43:43 13:48:38 45° 70° (ENE) 13:53:37 435.822/435.867
AIST 1 31 Mar 13:50:11 13:50:42 10° 64° (ENE) 13:51:29
AO-7 31 Mar 13:52:12 13:57:25 19° 50° (NE) 14:02:58 29.400- 29.500
ITUPSAT 1 31 Mar 13:53:33 13:57:52 33° 96° (E) 14:02:11 437.325
PCSat 31 Mar 13:57:32 14:02:28 38° 112° (ESE) 14:07:29 145.827
O/OREOS (USA 219) 31 Mar 14:07:38 14:12:03 51° 252° (WSW) 14:16:24 437.305
Oscar 19 31 Mar 14:13:09 14:17:46 33° 264° (W) 14:22:23 437.125/150
KKS-1 31 Mar 14:18:16 14:18:54 10° 87° (E) 14:19:49 437.445
TISAT 1 31 Mar 14:31:20 14:33:53 16° 295° (WNW) 14:36:19 437.305
SWISSCUBE 31 Mar 14:40:07 14:44:56 77° 285° (WNW) 14:49:41 437.505
BEESAT 31 Mar 14:42:41 14:47:29 79° 285° (WNW) 14:52:15 436.000
STARS 31 Mar 14:43:54 14:45:49 13° 89° (E) 14:47:58 437.465
Gurwin Techsat 1B 31 Mar 14:45:12 14:50:28 65° 258° (WSW) 14:55:47 435.225
JAS-2 31 Mar 15:05:58 15:12:12 35° 63° (ENE) 15:19:02 435.910
ITAMSAT 1 31 Mar 15:24:12 15:28:23 23° 267° (W) 15:32:27 435.822/435.867
AIST 1 31 Mar 15:24:43 15:29:02 72° 264° (W) 15:33:16
HORYU 2 31 Mar 15:27:29 15:31:55 84° 74° (ENE) 15:36:24 437.375
ITUPSAT 1 31 Mar 15:31:35 15:35:41 28° 293° (WNW) 15:39:42 437.325
YUBILEINY 31 Mar 15:31:50 15:39:19 29° 295° (WNW) 15:46:37 435.215
AO-7 31 Mar 15:40:48 15:49:05 78° 69° (ENE) 15:57:24 29.400- 29.500
PCSat 31 Mar 15:41:01 15:45:57 34° 311° (NW) 15:50:52 145.827
KKS-1 31 Mar 15:51:43 15:56:10 75° 286° (WNW) 16:00:36 437.445
STARS 31 Mar 16:18:24 16:22:46 60° 286° (WNW) 16:27:05 437.465
CUTE-I 31 Mar 16:26:37 16:26:58 10° 57° (ENE) 16:27:39 437.470
Cubesat XI-IV 31 Mar 16:26:59 16:27:50 10° 57° (ENE) 16:29:00 437.490
JAS-2 31 Mar 16:50:08 16:56:57 52° 263° (W) 17:04:25 435.910
BEESAT 2 31 Mar 16:57:47 16:58:31 10° 33° (NNE) 16:59:25 435.950
BEESAT 3 31 Mar 17:30:22 17:33:26 20° 43° (NE) 17:36:33 437.485
AUBIESAT-1 31 Mar 17:35:56 17:39:40 22° 97° (E) 17:43:22 437.475
AO-7 31 Mar 17:36:26 17:42:50 23° 269° (W) 17:48:54 29.400- 29.500
MOZHAYETS 4 31 Mar 17:43:12 17:47:54 83° 284° (WNW) 17:52:31
GONETS M04 31 Mar 17:54:28 18:00:04 20° 80° (E) 18:06:07
CUTE-I 31 Mar 18:00:52 18:06:11 69° 73° (ENE) 18:11:32 437.470
Cubesat XI-IV 31 Mar 18:01:46 18:07:06 71° 74° (ENE) 18:12:28 437.490
M-CUBED/EXP-1 PRIME 31 Mar 18:01:49 18:06:29 45° 103° (ESE) 18:11:01 437.505
CUBESAT XI-V 31 Mar 18:01:58 18:03:41 12° 87° (E) 18:05:40 437.345
AIST 2 31 Mar 18:21:42 18:24:57 21° 42° (NE) 18:28:14 435.215
